• en Suisse
  • Liste des pays
  • À 7 jours
  • Température de l'eau
  • Carte satellitaire
  • Carte météo
  • Widgets météo
  • user-avatar
    Se connecter

    Météo par heure à Trondheim

    Ce jour, 25 Septembre, Mardi

    Heure Température Précipitation Vent Pression Humidité
    00:00 +2°C° 0.1 mm 6 m/s 761 mmHg 83%
    01:00 +3°C° 0 mm 7 m/s 760 mmHg 77%
    02:00 +3°C° 0.3 mm 7 m/s 760 mmHg 77%
    03:00 +3°C° 0.3 mm 6 m/s 760 mmHg 76%
    04:00 +4°C° 0.3 mm 6 m/s 759 mmHg 75%
    05:00 +4°C° 0.6 mm 6 m/s 759 mmHg 77%
    06:00 +4°C° 0.6 mm 6 m/s 759 mmHg 78%
    07:00 +5°C° 0 mm 7 m/s 758 mmHg 80%
    08:00 +6°C° 0.9 mm 7 m/s 758 mmHg 81%
    09:00 +8°C° 0.9 mm 7 m/s 758 mmHg 82%
    10:00 +7°C° 0.9 mm 8 m/s 758 mmHg 83%
    11:00 +9°C° 0.6 mm 8 m/s 758 mmHg 82%
    12:00 +9°C° 0.6 mm 8 m/s 757 mmHg 80%
    13:00 +10°C° 0.6 mm 7 m/s 757 mmHg 79%
    14:00 +10°C° 0.5 mm 7 m/s 756 mmHg 80%
    15:00 +9°C° 0.5 mm 6 m/s 756 mmHg 81%
    16:00 +9°C° 0.5 mm 5 m/s 755 mmHg 82%
    17:00 +9°C° 0.6 mm 5 m/s 754 mmHg 83%
    18:00 +8°C° 0.6 mm 5 m/s 753 mmHg 84%
    19:00 +8°C° 0.6 mm 4 m/s 752 mmHg 85%
    20:00 +8°C° 0.8 mm 4 m/s 751 mmHg 85%
    21:00 +8°C° 0.8 mm 4 m/s 750 mmHg 86%
    22:00 +7°C° 0.8 mm 4 m/s 748 mmHg 86%
    23:00 +8°C° 0.6 mm 5 m/s 747 mmHg 85%

    Demain, 26 Septembre, Mercredi

    Heure Température Précipitation Vent Pression Humidité
    00:00 +8°C° 0.6 mm 5 m/s 745 mmHg 84%
    01:00 +8°C° 0.6 mm 6 m/s 744 mmHg 83%
    02:00 +8°C° 0.9 mm 7 m/s 743 mmHg 84%
    03:00 +8°C° 0.9 mm 7 m/s 743 mmHg 85%
    04:00 +7°C° 0.9 mm 8 m/s 742 mmHg 86%
    05:00 +7°C° 1.3 mm 9 m/s 742 mmHg 85%
    06:00 +7°C° 1.3 mm 10 m/s 742 mmHg 84%
    07:00 +6°C° 1.3 mm 10 m/s 742 mmHg 83%
    08:00 +6°C° 0.5 mm 11 m/s 743 mmHg 81%
    09:00 +6°C° 0.5 mm 11 m/s 744 mmHg 80%
    10:00 +6°C° 0.5 mm 11 m/s 744 mmHg 79%
    11:00 +6°C° 0.7 mm 11 m/s 745 mmHg 79%
    12:00 +6°C° 0.7 mm 11 m/s 746 mmHg 78%
    13:00 +6°C° 0.7 mm 10 m/s 746 mmHg 78%
    14:00 +6°C° 0.5 mm 10 m/s 747 mmHg 79%
    15:00 +6°C° 0.5 mm 10 m/s 747 mmHg 80%
    16:00 +6°C° 0.5 mm 10 m/s 747 mmHg 81%
    17:00 +5°C° 0.8 mm 10 m/s 747 mmHg 83%
    18:00 +5°C° 0.8 mm 10 m/s 747 mmHg 84%
    19:00 +5°C° 0.8 mm 10 m/s 748 mmHg 86%
    20:00 +5°C° 1.1 mm 9 m/s 748 mmHg 86%
    21:00 +5°C° 1.1 mm 9 m/s 748 mmHg 87%
    22:00 +5°C° 1.1 mm 9 m/s 748 mmHg 88%
    23:00 +5°C° 0.8 mm 8 m/s 749 mmHg 87%

    Après-demain, 27 Septembre, Jeudi

    Heure Température Précipitation Vent Pression Humidité
    00:00 +5°C° 0.8 mm 8 m/s 749 mmHg 87%
    01:00 +5°C° 0.8 mm 8 m/s 750 mmHg 86%
    02:00 +5°C° 0.2 mm 7 m/s 750 mmHg 87%
    03:00 +5°C° 0.2 mm 5 m/s 751 mmHg 88%
    04:00 +5°C° 0.2 mm 4 m/s 751 mmHg 89%
    05:00 +5°C° 0.2 mm 4 m/s 751 mmHg 90%
    06:00 +5°C° 0.2 mm 3 m/s 751 mmHg 90%
    07:00 +5°C° 0.2 mm 3 m/s 751 mmHg 91%
    08:00 +5°C° 0.3 mm 3 m/s 751 mmHg 89%
    09:00 +7°C° 0.3 mm 3 m/s 751 mmHg 87%
    10:00 +7°C° 0.3 mm 3 m/s 751 mmHg 85%
    11:00 +7°C° 0.5 mm 4 m/s 751 mmHg 84%
    12:00 +7°C° 0.5 mm 4 m/s 751 mmHg 83%
    13:00 +7°C° 0.5 mm 4 m/s 751 mmHg 82%
    14:00 +6°C° 0.3 mm 4 m/s 750 mmHg 83%
    15:00 +7°C° 0.3 mm 3 m/s 750 mmHg 84%
    16:00 +7°C° 0.3 mm 3 m/s 750 mmHg 84%
    17:00 +5°C° 0.4 mm 3 m/s 750 mmHg 86%
    18:00 +5°C° 0.4 mm 3 m/s 751 mmHg 88%
    19:00 +5°C° 0.4 mm 3 m/s 751 mmHg 89%
    20:00 +4°C° 0.6 mm 4 m/s 751 mmHg 90%
    21:00 +4°C° 0.6 mm 4 m/s 752 mmHg 90%
    22:00 +4°C° 0.6 mm 4 m/s 752 mmHg 90%
    23:00 +4°C° 0.6 mm 4 m/s 753 mmHg 90%

    28 Septembre, Vendredi

    Heure Température Précipitation Vent Pression Humidité
    00:00 +4°C° 0.6 mm 4 m/s 753 mmHg 89%
    01:00 +4°C° 0.6 mm 4 m/s 754 mmHg 89%
    02:00 +2°C° 0.4 mm 5 m/s 754 mmHg 88%
    03:00 +2°C° 0.4 mm 5 m/s 755 mmHg 88%
    04:00 +2°C° 0.4 mm 6 m/s 755 mmHg 87%
    05:00 +2°C° 0.4 mm 6 m/s 755 mmHg 87%
    06:00 +2°C° 0.4 mm 5 m/s 755 mmHg 88%
    07:00 +2°C° 0.4 mm 5 m/s 755 mmHg 88%
    08:00 +3°C° 0.4 mm 6 m/s 756 mmHg 86%
    09:00 +3°C° 0.4 mm 6 m/s 756 mmHg 85%
    10:00 +4°C° 0.4 mm 7 m/s 756 mmHg 83%
    11:00 +4°C° 0.4 mm 7 m/s 757 mmHg 83%
    12:00 +4°C° 0.4 mm 7 m/s 757 mmHg 82%
    13:00 +4°C° 0.4 mm 7 m/s 757 mmHg 82%
    14:00 +4°C° 0.4 mm 7 m/s 758 mmHg 82%
    15:00 +4°C° 0.4 mm 7 m/s 759 mmHg 83%
    16:00 +4°C° 0.4 mm 7 m/s 759 mmHg 84%
    17:00 +3°C° 0.2 mm 6 m/s 760 mmHg 85%
    18:00 +2°C° 0.2 mm 5 m/s 760 mmHg 86%
    19:00 +3°C° 0.2 mm 4 m/s 761 mmHg 87%
    20:00 +3°C° 0.1 mm 3 m/s 761 mmHg 87%
    21:00 +2°C° 0.1 mm 3 m/s 761 mmHg 87%
    22:00 +2°C° 0.1 mm 3 m/s 761 mmHg 88%
    23:00 +2°C° 0.2 mm 3 m/s 761 mmHg 87%

    29 Septembre, Samedi

    Heure Température Précipitation Vent Pression Humidité
    00:00 +1°C° 0.2 mm 4 m/s 761 mmHg 87%
    01:00 +2°C° 0.2 mm 5 m/s 760 mmHg 86%
    02:00 +2°C° 0.2 mm 5 m/s 759 mmHg 84%
    03:00 +2°C° 0.2 mm 5 m/s 758 mmHg 82%
    04:00 +2°C° 0.2 mm 5 m/s 758 mmHg 80%
    05:00 +2°C° 0.5 mm 5 m/s 757 mmHg 81%
    06:00 +2°C° 0.5 mm 5 m/s 756 mmHg 82%
    07:00 +2°C° 0.5 mm 6 m/s 755 mmHg 83%
    08:00 +3°C° 0.5 mm 6 m/s 754 mmHg 83%
    09:00 +3°C° 0.5 mm 6 m/s 754 mmHg 84%
    10:00 +4°C° 0.5 mm 7 m/s 753 mmHg 85%
    11:00 +4°C° 0.4 mm 7 m/s 753 mmHg 86%
    12:00 +5°C° 0.4 mm 7 m/s 752 mmHg 86%
    13:00 +5°C° 0.4 mm 7 m/s 751 mmHg 87%
    14:00 +6°C° 0.3 mm 7 m/s 751 mmHg 87%
    15:00 +6°C° 0.3 mm 7 m/s 750 mmHg 87%
    16:00 +6°C° 0.3 mm 7 m/s 749 mmHg 87%
    17:00 +6°C° 0.5 mm 7 m/s 749 mmHg 86%
    18:00 +6°C° 0.5 mm 7 m/s 748 mmHg 86%
    19:00 +5°C° 0.5 mm 7 m/s 748 mmHg 86%
    20:00 +5°C° 0.3 mm 7 m/s 748 mmHg 86%
    21:00 +5°C° 0.3 mm 8 m/s 748 mmHg 86%
    22:00 +5°C° 0.3 mm 8 m/s 748 mmHg 86%
    23:00 +5°C° 0.1 mm 8 m/s 748 mmHg 85%

    30 Septembre, Dimanche

    Heure Température Précipitation Vent Pression Humidité
    00:00 +5°C° 0.1 mm 8 m/s 747 mmHg 85%
    01:00 +5°C° 0.1 mm 8 m/s 747 mmHg 84%
    02:00 +5°C° 0.2 mm 8 m/s 747 mmHg 84%
    03:00 +4°C° 0.2 mm 8 m/s 746 mmHg 83%
    04:00 +4°C° 0.2 mm 8 m/s 746 mmHg 83%
    05:00 +4°C° 0.3 mm 8 m/s 746 mmHg 83%
    06:00 +4°C° 0.3 mm 8 m/s 746 mmHg 83%
    07:00 +4°C° 0.3 mm 8 m/s 745 mmHg 83%
    08:00 +5°C° 0.8 mm 8 m/s 745 mmHg 83%
    09:00 +5°C° 0.8 mm 8 m/s 745 mmHg 84%
    10:00 +5°C° 0.8 mm 8 m/s 745 mmHg 84%
    11:00 +5°C° 0.5 mm 9 m/s 746 mmHg 84%
    12:00 +6°C° 0.5 mm 9 m/s 746 mmHg 84%
    13:00 +6°C° 0.5 mm 10 m/s 747 mmHg 84%
    14:00 +6°C° 0.6 mm 9 m/s 747 mmHg 84%
    15:00 +5°C° 0.6 mm 9 m/s 748 mmHg 84%
    16:00 +5°C° 0.6 mm 8 m/s 748 mmHg 83%
    17:00 +5°C° 0.4 mm 8 m/s 749 mmHg 84%
    18:00 +4°C° 0.4 mm 7 m/s 750 mmHg 85%
    19:00 +4°C° 0.4 mm 6 m/s 751 mmHg 86%
    20:00 +4°C° 0.5 mm 6 m/s 751 mmHg 86%
    21:00 +4°C° 0.5 mm 6 m/s 752 mmHg 87%
    22:00 +3°C° 0.5 mm 6 m/s 752 mmHg 87%
    23:00 +3°C° 0.4 mm 6 m/s 752 mmHg 87%
    Voir plus